AUA25M EDDH-LOWW

Flight info

Callsign AUA25M
Flight time 1h 9m
Altitude 37000
Route RAMAR6G/33 RAMAR Z998 RATMO DCT HDO DCT EVIKU DCT BITSI DCT MIKOV MIKOV8W
Aircraft A320/M-SDE3FGHIRWY/LB1

Departure

Time 2026-05-05 16:03
Airport Hamburg Helmut Schmidt Airport (EDDH)

Arrival

Time 2026-05-05 17:12
Airport Vienna International Airport (LOWW)
Time Latitude Longitude Altitude Speed Heading
2026-05-05 15:29 53.63295 10.00356 50 ft 0 kts 87°
2026-05-05 15:30 53.63295 10.00355 50 ft 0 kts 87°
2026-05-05 15:51 53.63294 10.00338 50 ft 2 kts 87°
2026-05-05 15:51 53.63294 10.00311 50 ft 2 kts 89°
2026-05-05 15:51 53.63294 10.00283 50 ft 2 kts 92°
2026-05-05 15:51 53.63295 10.00255 48 ft 2 kts 109°
2026-05-05 15:52 53.63305 10.00234 46 ft 2 kts 176°
2026-05-05 15:52 53.63310 10.00234 50 ft 0 kts 175°
2026-05-05 15:52 53.63309 10.00234 50 ft 0 kts 175°
2026-05-05 15:56 53.63308 10.00234 50 ft 3 kts 175°
2026-05-05 15:57 53.63256 10.00242 50 ft 8 kts 175°
2026-05-05 15:57 53.63200 10.00248 49 ft 8 kts 176°
2026-05-05 15:57 53.63145 10.00255 46 ft 8 kts 176°
2026-05-05 15:57 53.63083 10.00261 47 ft 9 kts 181°
2026-05-05 15:58 53.63025 10.00213 44 ft 10 kts 212°
2026-05-05 15:58 53.62966 10.00151 43 ft 10 kts 212°
2026-05-05 15:58 53.62910 10.00090 42 ft 9 kts 212°
2026-05-05 15:58 53.62860 10.00025 45 ft 9 kts 224°
2026-05-05 15:59 53.62816 9.99972 45 ft 1 kts 209°
2026-05-05 15:59 53.62819 9.99946 46 ft 4 kts 290°
2026-05-05 16:00 53.62822 9.99931 46 ft 0 kts 286°
2026-05-05 16:00 53.62816 9.99868 46 ft 10 kts 251°
2026-05-05 16:00 53.62831 9.99775 44 ft 7 kts 327°
2026-05-05 16:01 53.62832 9.99774 45 ft 0 kts 328°
2026-05-05 16:02 53.62833 9.99774 45 ft 1 kts 328°
2026-05-05 16:02 53.63070 9.99570 48 ft 84 kts 332°
2026-05-05 16:02 53.63837 9.98910 51 ft 159 kts 335°
2026-05-05 16:03 53.64910 9.98115 745 ft 169 kts 338°
2026-05-05 16:03 53.65981 9.97236 1710 ft 177 kts 336°
2026-05-05 16:03 53.67132 9.96233 2131 ft 197 kts 335°
2026-05-05 16:03 53.68406 9.95146 2628 ft 210 kts 341°
2026-05-05 16:04 53.69845 9.94719 3425 ft 211 kts
2026-05-05 16:04 53.71322 9.94707 4293 ft 213 kts
2026-05-05 16:04 53.72791 9.95220 4885 ft 222 kts 24°
2026-05-05 16:04 53.74050 9.96829 5024 ft 245 kts 51°
2026-05-05 16:05 53.74922 9.99452 5064 ft 264 kts 64°
2026-05-05 16:05 53.75716 10.02265 5060 ft 266 kts 63°
2026-05-05 16:05 53.76516 10.05084 5063 ft 267 kts 63°
2026-05-05 16:05 53.77323 10.07909 5058 ft 267 kts 63°
2026-05-05 16:06 53.78121 10.10695 5056 ft 267 kts 63°
2026-05-05 16:06 53.78931 10.13517 5063 ft 268 kts 63°
2026-05-05 16:06 53.79759 10.16395 5733 ft 273 kts 63°
2026-05-05 16:06 53.80598 10.19319 6605 ft 280 kts 63°
2026-05-05 16:07 53.81467 10.22353 7439 ft 286 kts 63°
2026-05-05 16:07 53.82328 10.25365 8273 ft 291 kts 63°
2026-05-05 16:07 53.83215 10.28469 9125 ft 296 kts 63°
2026-05-05 16:07 53.83965 10.31747 9925 ft 302 kts 75°
2026-05-05 16:08 53.84341 10.35357 10304 ft 324 kts 87°
2026-05-05 16:08 53.84231 10.39283 10597 ft 344 kts 101°
2026-05-05 16:08 53.83683 10.43288 11206 ft 353 kts 104°
2026-05-05 16:08 53.83113 10.47357 11946 ft 358 kts 104°
2026-05-05 16:09 53.82549 10.51485 12693 ft 362 kts 104°
2026-05-05 16:09 53.81981 10.55670 13423 ft 367 kts 104°
2026-05-05 16:09 53.81409 10.59895 14087 ft 371 kts 104°
2026-05-05 16:09 53.80824 10.64185 14705 ft 376 kts 104°
2026-05-05 16:10 53.80130 10.68476 15311 ft 380 kts 112°
2026-05-05 16:10 53.79006 10.72530 15922 ft 383 kts 123°
2026-05-05 16:10 53.77589 10.76364 16533 ft 387 kts 124°
2026-05-05 16:10 53.76144 10.80236 17149 ft 391 kts 124°
2026-05-05 16:11 53.74688 10.84150 17751 ft 396 kts 124°
2026-05-05 16:11 53.69573 10.95163 19402 ft 399 kts 145°
2026-05-05 16:12 53.67280 10.97771 19954 ft 398 kts 153°
2026-05-05 16:12 53.62547 11.02574 21048 ft 402 kts 153°
2026-05-05 16:13 53.55303 11.09976 22643 ft 410 kts 153°
2026-05-05 16:13 53.52857 11.12466 23142 ft 412 kts 153°
2026-05-05 16:13 53.50395 11.14962 23610 ft 415 kts 153°
2026-05-05 16:14 53.45424 11.19988 24460 ft 419 kts 154°
2026-05-05 16:14 53.40405 11.25052 25282 ft 423 kts 154°
2026-05-05 16:15 53.35337 11.30157 26084 ft 427 kts 154°
2026-05-05 16:15 53.30223 11.35297 26866 ft 431 kts 154°
2026-05-05 16:16 53.25245 11.41017 27622 ft 443 kts 143°
2026-05-05 16:16 53.20693 11.48035 28360 ft 447 kts 142°
2026-05-05 16:17 53.16087 11.55086 29080 ft 452 kts 143°
2026-05-05 16:17 53.13766 11.58626 29398 ft 454 kts 143°
2026-05-05 16:18 53.09095 11.65770 30012 ft 458 kts 143°
2026-05-05 16:18 53.06740 11.69369 30276 ft 460 kts 143°
2026-05-05 16:18 53.02023 11.76536 30797 ft 464 kts 143°
2026-05-05 16:19 52.99653 11.80191 31038 ft 468 kts 140°
2026-05-05 16:19 52.97526 11.84330 31375 ft 474 kts 132°
2026-05-05 16:19 52.93562 11.93051 32086 ft 473 kts 133°
2026-05-05 16:20 52.89584 12.01722 32787 ft 472 kts 133°
2026-05-05 16:20 52.85612 12.10360 33481 ft 471 kts 133°
2026-05-05 16:21 52.81641 12.18986 34131 ft 471 kts 133°
2026-05-05 16:22 52.75688 12.31866 34989 ft 470 kts 133°
2026-05-05 16:22 52.71679 12.40357 35531 ft 466 kts 137°
2026-05-05 16:23 52.66837 12.47187 36012 ft 454 kts 151°
2026-05-05 16:23 52.64238 12.50141 36248 ft 454 kts 151°
2026-05-05 16:23 52.59044 12.56063 36705 ft 454 kts 151°
2026-05-05 16:24 52.56448 12.59028 36844 ft 455 kts 150°
2026-05-05 16:24 52.53856 12.61984 36858 ft 454 kts 151°
2026-05-05 16:25 52.46074 12.70796 36863 ft 452 kts 151°
2026-05-05 16:25 52.38301 12.79550 36858 ft 452 kts 151°
2026-05-05 16:26 52.27941 12.91182 36845 ft 451 kts 151°
2026-05-05 16:27 52.22794 12.96922 36843 ft 451 kts 151°
2026-05-05 16:27 52.17617 13.02677 36848 ft 450 kts 151°
2026-05-05 16:28 52.12443 13.08425 36846 ft 450 kts 151°
2026-05-05 16:28 52.07277 13.14154 36841 ft 449 kts 151°
2026-05-05 16:29 52.02112 13.19867 36840 ft 449 kts 151°
2026-05-05 16:29 51.96945 13.25556 36838 ft 449 kts 151°
2026-05-05 16:30 51.91777 13.31229 36834 ft 448 kts 151°
2026-05-05 16:30 51.86616 13.36873 36836 ft 448 kts 151°
2026-05-05 16:31 51.81447 13.42519 36833 ft 448 kts 151°
2026-05-05 16:31 51.76280 13.48145 36828 ft 448 kts 151°
2026-05-05 16:32 51.71113 13.53752 36829 ft 448 kts 151°
2026-05-05 16:32 51.65939 13.59350 36827 ft 448 kts 151°
2026-05-05 16:33 51.60767 13.64934 36829 ft 448 kts 151°
2026-05-05 16:33 51.55588 13.70505 36816 ft 448 kts 151°
2026-05-05 16:34 51.50408 13.76071 36817 ft 448 kts 151°
2026-05-05 16:34 51.45223 13.81629 36810 ft 448 kts 151°
2026-05-05 16:35 51.40907 13.86235 36807 ft 448 kts 151°
2026-05-05 16:35 51.35710 13.91762 36802 ft 449 kts 151°
2026-05-05 16:36 51.29660 13.98181 36803 ft 449 kts 151°
2026-05-05 16:36 51.25302 14.02797 36798 ft 449 kts 151°
2026-05-05 16:37 51.20095 14.08299 36805 ft 449 kts 151°
2026-05-05 16:37 51.14883 14.13786 36804 ft 449 kts 150°
2026-05-05 16:38 51.09669 14.19264 36808 ft 449 kts 150°
2026-05-05 16:38 51.04459 14.24733 36806 ft 449 kts 150°
2026-05-05 16:39 50.99243 14.30183 36807 ft 449 kts 150°
2026-05-05 16:39 50.93978 14.35462 36805 ft 445 kts 157°
2026-05-05 16:40 50.88205 14.38606 36804 ft 437 kts 171°
2026-05-05 16:40 50.82327 14.40766 36801 ft 437 kts 171°
2026-05-05 16:41 50.76404 14.42965 36799 ft 437 kts 171°
2026-05-05 16:41 50.70487 14.45164 36794 ft 437 kts 171°
2026-05-05 16:42 50.64569 14.47352 36789 ft 437 kts 171°
2026-05-05 16:42 50.58651 14.49535 36781 ft 437 kts 171°
2026-05-05 16:43 50.52732 14.51704 36775 ft 437 kts 171°
2026-05-05 16:43 50.46933 14.54658 36767 ft 443 kts 156°
2026-05-05 16:44 50.41942 14.60424 36756 ft 451 kts 139°
2026-05-05 16:44 50.37439 14.67292 36748 ft 452 kts 139°
2026-05-05 16:45 50.32906 14.74130 36742 ft 452 kts 139°
2026-05-05 16:45 50.28369 14.80960 36741 ft 453 kts 139°
2026-05-05 16:46 50.23827 14.87787 36741 ft 454 kts 139°
2026-05-05 16:46 50.19270 14.94627 36736 ft 454 kts 139°
2026-05-05 16:47 50.14708 15.01456 36744 ft 455 kts 139°
2026-05-05 16:47 50.10171 15.08223 36743 ft 455 kts 139°
2026-05-05 16:48 50.05563 15.15063 36745 ft 455 kts 139°
2026-05-05 16:48 50.01012 15.21813 36741 ft 455 kts 139°
2026-05-05 16:49 49.96421 15.28605 36743 ft 456 kts 139°
2026-05-05 16:49 49.91829 15.35384 36747 ft 456 kts 139°
2026-05-05 16:50 49.87226 15.42157 36746 ft 456 kts 139°
2026-05-05 16:50 49.82613 15.48930 36747 ft 457 kts 139°
2026-05-05 16:51 49.77994 15.55700 36753 ft 460 kts 139°
2026-05-05 16:51 49.73283 15.62553 36756 ft 470 kts 139°
2026-05-05 16:52 49.68462 15.69541 36752 ft 480 kts 139°
2026-05-05 16:52 49.63569 15.76636 36793 ft 480 kts 139°
2026-05-05 16:53 49.61155 15.80144 36284 ft 475 kts 139°
2026-05-05 16:53 49.58752 15.83638 35497 ft 476 kts 139°
2026-05-05 16:53 49.56336 15.87135 34703 ft 477 kts 139°
2026-05-05 16:53 49.53908 15.90630 33900 ft 479 kts 139°
2026-05-05 16:54 49.51468 15.94127 33002 ft 480 kts 139°
2026-05-05 16:54 49.49032 15.97616 32280 ft 477 kts 139°
2026-05-05 16:54 49.46606 16.01096 31525 ft 476 kts 139°
2026-05-05 16:54 49.44195 16.04553 30877 ft 472 kts 139°
2026-05-05 16:55 49.41805 16.07972 30285 ft 467 kts 139°
2026-05-05 16:55 49.39441 16.11352 29675 ft 462 kts 139°
2026-05-05 16:55 49.37098 16.14697 28987 ft 457 kts 139°
2026-05-05 16:55 49.34781 16.18000 28319 ft 453 kts 139°
2026-05-05 16:56 49.32484 16.21261 27701 ft 448 kts 140°
2026-05-05 16:56 49.30012 16.24100 27001 ft 443 kts 150°
2026-05-05 16:56 49.27343 16.26222 26474 ft 434 kts 156°
2026-05-05 16:56 49.24631 16.28219 25889 ft 430 kts 156°
2026-05-05 16:57 49.21951 16.30201 25377 ft 425 kts 156°
2026-05-05 16:57 49.19312 16.32158 24892 ft 419 kts 156°
2026-05-05 16:57 49.16706 16.34089 24394 ft 414 kts 156°
2026-05-05 16:57 49.14131 16.35993 23912 ft 409 kts 156°
2026-05-05 16:58 49.11587 16.37873 23427 ft 404 kts 156°
2026-05-05 16:58 49.09070 16.39730 22892 ft 400 kts 156°
2026-05-05 16:58 49.06571 16.41527 22263 ft 396 kts 160°
2026-05-05 16:58 49.03878 16.42490 21208 ft 401 kts 179°
2026-05-05 16:59 49.01140 16.42137 20753 ft 391 kts 193°
2026-05-05 16:59 48.98487 16.41354 20261 ft 386 kts 193°
2026-05-05 16:59 48.95862 16.40578 19748 ft 382 kts 193°
2026-05-05 16:59 48.93263 16.39807 19242 ft 379 kts 193°
2026-05-05 17:00 48.90690 16.39037 18757 ft 375 kts 193°
2026-05-05 17:00 48.88138 16.38270 18285 ft 372 kts 193°
2026-05-05 17:00 48.85610 16.37511 17789 ft 369 kts 193°
2026-05-05 17:00 48.83102 16.36757 17269 ft 366 kts 193°
2026-05-05 17:01 48.80614 16.36008 16760 ft 363 kts 193°
2026-05-05 17:01 48.78148 16.35265 16271 ft 360 kts 193°
2026-05-05 17:01 48.75704 16.34532 15799 ft 357 kts 192°
2026-05-05 17:01 48.73273 16.33809 15342 ft 354 kts 192°
2026-05-05 17:02 48.70865 16.33097 14888 ft 352 kts 192°
2026-05-05 17:02 48.68474 16.32389 14438 ft 349 kts 192°
2026-05-05 17:02 48.66103 16.31685 13996 ft 346 kts 192°
2026-05-05 17:02 48.63748 16.30986 13550 ft 344 kts 192°
2026-05-05 17:03 48.61408 16.30291 13065 ft 341 kts 192°
2026-05-05 17:03 48.59091 16.29596 12551 ft 339 kts 192°
2026-05-05 17:03 48.56785 16.28904 12031 ft 337 kts 193°
2026-05-05 17:03 48.54496 16.28221 11514 ft 335 kts 192°
2026-05-05 17:04 48.52218 16.27545 11032 ft 333 kts 192°
2026-05-05 17:04 48.49952 16.26874 10585 ft 330 kts 192°
2026-05-05 17:04 48.47747 16.26226 10445 ft 317 kts 192°
2026-05-05 17:04 48.45621 16.25604 10315 ft 305 kts 193°
2026-05-05 17:05 48.43571 16.25002 10200 ft 295 kts 193°
2026-05-05 17:05 48.41577 16.24533 10046 ft 287 kts 182°
2026-05-05 17:05 48.39591 16.24732 9707 ft 287 kts 176°
2026-05-05 17:05 48.37590 16.25065 9199 ft 291 kts 175°
2026-05-05 17:06 48.35564 16.25409 8666 ft 295 kts 175°
2026-05-05 17:06 48.33514 16.25752 8104 ft 298 kts 175°
2026-05-05 17:06 48.31469 16.26083 7547 ft 291 kts 175°
2026-05-05 17:06 48.29489 16.26404 7021 ft 282 kts 175°
2026-05-05 17:07 48.27560 16.26727 6487 ft 275 kts 175°
2026-05-05 17:07 48.25686 16.27046 5957 ft 267 kts 175°
2026-05-05 17:07 48.23864 16.27362 5411 ft 261 kts 175°
2026-05-05 17:07 48.22083 16.27656 4876 ft 255 kts 176°
2026-05-05 17:08 48.20350 16.28030 4332 ft 249 kts 165°
2026-05-05 17:08 48.18895 16.29331 3785 ft 251 kts 137°
2026-05-05 17:08 48.17957 16.31472 3532 ft 238 kts 118°
2026-05-05 17:08 48.17398 16.33678 3495 ft 218 kts 114°
2026-05-05 17:09 48.16892 16.35823 3336 ft 219 kts 112°
2026-05-05 17:09 48.16466 16.38002 3070 ft 218 kts 111°
2026-05-05 17:09 48.16074 16.40196 2776 ft 217 kts 110°
2026-05-05 17:09 48.15688 16.42363 2321 ft 213 kts 111°
2026-05-05 17:10 48.15258 16.44460 1809 ft 206 kts 117°
2026-05-05 17:10 48.14623 16.46365 1444 ft 206 kts 122°
2026-05-05 17:10 48.13969 16.48170 1181 ft 190 kts 124°
2026-05-05 17:10 48.13431 16.49859 1082 ft 170 kts 120°
2026-05-05 17:11 48.12959 16.51362 904 ft 149 kts 122°
2026-05-05 17:11 48.12510 16.52696 719 ft 138 kts 123°
2026-05-05 17:11 48.12085 16.53956 595 ft 131 kts 122°
2026-05-05 17:11 48.11722 16.55014 590 ft 91 kts 120°
2026-05-05 17:12 48.11541 16.55605 600 ft 35 kts 115°
2026-05-05 17:12 48.11502 16.55849 602 ft 21 kts 92°
2026-05-05 17:12 48.11508 16.56041 601 ft 16 kts 85°
2026-05-05 17:12 48.11509 16.56053 601 ft 0 kts 85°
2026-05-05 17:13 48.11509 16.56056 601 ft 2 kts 85°
2026-05-05 17:13 48.11516 16.56104 602 ft 5 kts 64°
2026-05-05 17:13 48.11565 16.56156 602 ft 11 kts 26°
2026-05-05 17:13 48.11632 16.56238 599 ft 13 kts 78°
2026-05-05 17:14 48.11597 16.56368 599 ft 14 kts 116°
2026-05-05 17:14 48.11550 16.56513 598 ft 16 kts 115°
2026-05-05 17:14 48.11501 16.56665 601 ft 13 kts 116°
2026-05-05 17:14 48.11465 16.56773 602 ft 12 kts 116°
2026-05-05 17:15 48.11426 16.56894 603 ft 13 kts 116°
2026-05-05 17:15 48.11385 16.57018 615 ft 13 kts 116°
2026-05-05 17:15 48.11343 16.57149 620 ft 15 kts 116°
2026-05-05 17:15 48.11304 16.57291 606 ft 14 kts 89°
2026-05-05 17:16 48.11369 16.57371 613 ft 12 kts 26°
2026-05-05 17:16 48.11439 16.57422 607 ft 11 kts 26°
2026-05-05 17:16 48.11511 16.57463 607 ft 10 kts
2026-05-05 17:16 48.11579 16.57442 616 ft 12 kts 344°
2026-05-05 17:17 48.11648 16.57413 615 ft 9 kts 343°
2026-05-05 17:17 48.11711 16.57386 615 ft 10 kts 344°
2026-05-05 17:17 48.11777 16.57358 617 ft 10 kts 344°
2026-05-05 17:17 48.11828 16.57295 608 ft 10 kts 298°
2026-05-05 17:18 48.11855 16.57203 607 ft 10 kts 279°
2026-05-05 17:18 48.11870 16.57102 602 ft 10 kts 294°
2026-05-05 17:18 48.11902 16.57000 601 ft 11 kts 295°
2026-05-05 17:18 48.11936 16.56896 599 ft 11 kts 296°
2026-05-05 17:19 48.11948 16.56808 598 ft 7 kts 227°
2026-05-05 17:19 48.11904 16.56772 599 ft 7 kts 206°
2026-05-05 17:19 48.11897 16.56767 599 ft 0 kts 206°
2026-05-05 17:22 48.11897 16.56768 599 ft 0 kts 206°